Theta_e
306 306 306 306 306 305 305 305 305 306 306 306 305 305 305 305 305 304 305 306 305 305 305 305 306 306 306 306 306 306 306 306 307 307 306 306 305 305 305 305 305 305 306 306 306 306 306 305 305 306 307 306 306 306 305 306 304 305 304 303 302 301 301 299 297 297 300 303 302 302 303 298 294 294 294 293 292 292 291 292 292 291 290 290 290
304 304 304 304 304 303 303 303 303 304 304 303 303 303 303 302 302 303 303 304 304 303 303 304 304 304 303 303 304 304 304 304 305 305 304 304 304 304 304 303 303 303 304 303 303 304 303 302 303 303 304 304 303 302 303 302 301 300 300 300 300 300 300 298 297 296 296 300 300 302 301 296 298 295 293 293 292 291 290 290 290 290 289 289 289
303 303 303 302 302 302 302 301 302 302 301 301 301 300 301 301 301 301 301 302 302 302 302 302 302 302 302 302 302 302 302 301 301 301 301 301 301 301 302 302 301 301 300 300 301 301 300 300 300 301 302 301 300 300 300 300 300 299 299 299 298 298 298 298 297 296 296 297 300 300 301 296 293 295 292 293 293 292 290 289 289 289 288 288 288
302 302 302 302 302 301 301 301 301 300 300 300 299 299 299 300 299 300 300 300 300 301 301 301 300 300 300 301 301 300 300 300 299 299 299 299 299 299 299 299 299 299 299 299 299 299 298 298 298 298 297 297 298 298 299 298 298 298 297 298 297 297 297 297 297 296 296 295 298 298 299 299 297 293 293 290 290 289 288 288 288 287 287 287 287
302 302 302 301 301 300 300 300 299 299 299 299 298 299 298 298 299 299 299 299 299 299 300 300 300 300 300 299 300 299 299 299 299 299 298 298 298 298 298 297 297 297 298 298 295 297 296 296 297 297 297 296 296 296 297 297 297 296 296 297 297 297 297 297 296 296 295 294 296 298 298 298 297 289 288 287 286 286 286 286 286 286 286 286 286
301 301 300 299 298 298 298 298 297 297 297 298 298 298 298 298 298 298 297 297 298 299 298 298 298 298 298 299 299 299 299 299 298 298 298 298 298 298 297 297 297 297 297 296 296 296 296 296 296 296 296 295 295 296 296 296 296 296 296 296 296 296 295 295 295 295 295 295 295 295 296 294 293 291 287 287 286 285 284 284 284 284 284 284 285
299 298 298 297 297 296 296 296 296 296 296 296 296 296 296 296 296 296 296 296 296 296 297 297 297 297 297 298 298 298 298 298 299 299 299 299 298 297 297 296 296 296 296 295 296 296 295 295 295 295 295 296 295 295 296 296 296 295 295 295 296 295 295 295 294 294 294 293 294 294 294 295 294 293 288 286 287 287 285 283 281 283 283 283 283
297 297 296 296 295 295 295 295 295 295 295 295 295 295 295 295 295 295 295 295 295 295 295 295 296 296 297 297 297 298 297 297 298 298 298 298 298 297 297 296 296 296 296 296 296 295 295 295 295 295 295 295 296 296 296 295 295 295 296 295 295 295 294 294 294 293 293 292 292 292 293 293 292 288 285 285 284 284 285 284 284 284 282 283 283
296 295 295 294 294 294 295 295 294 295 294 294 293 293 293 293 293 293 293 294 294 294 294 294 294 294 295 295 296 297 297 298 298 298 296 295 296 295 295 295 295 294 294 295 295 295 295 296 295 296 295 292 292 293 294 294 296 294 295 295 294 294 294 293 293 293 292 292 292 292 292 291 292 290 285 284 284 285 286 284 284 285 283 282 282
294 294 293 293 293 294 293 293 293 293 292 292 292 292 292 292 292 292 292 292 292 293 293 293 293 294 293 294 294 296 297 298 294 292 292 293 293 294 294 294 294 294 293 294 294 295 295 295 295 291 290 290 290 291 292 292 292 293 294 294 294 293 292 292 292 292 292 291 291 291 291 291 291 291 289 288 287 286 285 283 282 284 281 281 281
292 292 292 292 292 292 292 292 292 291 291 291 290 290 290 290 290 290 290 291 291 292 291 291 292 292 292 293 293 294 295 296 292 293 294 293 293 293 292 293 293 293 293 293 293 293 294 295 295 293 291 290 290 290 291 291 292 292 292 292 292 293 291 291 291 291 290 290 291 291 291 290 291 291 290 290 287 286 285 284 284 283 279 278 277
292 291 291 291 291 291 291 290 290 290 290 289 289 289 289 288 289 289 289 289 289 290 290 290 291 291 292 292 292 292 292 291 293 293 293 293 292 291 292 292 292 292 293 293 293 293 293 294 294 295 295 295 294 294 292 291 291 291 291 291 292 292 292 291 290 290 290 290 290 290 290 290 291 291 291 289 287 286 285 284 283 282 280 279 280
291 290 290 290 290 290 290 289 289 289 288 288 288 287 287 287 287 287 287 288 289 289 289 289 289 290 290 290 290 290 291 291 292 292 292 292 292 291 291 291 291 291 292 292 292 293 293 293 293 293 294 290 290 292 293 293 291 291 291 291 291 291 292 293 293 291 291 290 290 290 291 291 290 291 291 289 288 286 285 283 283 282 282 281 281
290 290 289 289 289 289 289 288 288 288 288 288 287 286 286 286 287 286 287 288 288 287 287 288 288 289 289 289 289 289 289 290 291 291 291 291 292 291 291 291 291 291 291 291 292 292 292 292 292 292 293 293 293 293 292 292 292 293 292 292 291 290 290 291 291 291 290 290 290 289 291 292 290 291 291 289 287 286 285 284 283 282 282 281 283
289 289 289 289 289 288 288 288 287 287 287 286 286 286 286 286 286 286 287 287 286 286 287 287 287 287 287 287 287 287 289 290 290 291 291 291 291 291 290 290 290 290 291 291 292 291 291 292 292 291 292 292 292 292 292 292 290 290 290 289 290 290 291 291 291 291 290 291 290 290 291 292 291 291 291 289 288 288 288 286 285 284 284 284 283
287 288 288 288 287 287 287 286 286 286 285 285 285 285 285 285 285 286 286 286 286 287 287 287 286 286 286 286 286 286 287 289 290 290 290 290 291 289 289 289 288 289 289 289 290 291 291 291 291 291 291 291 291 292 291 291 290 289 288 288 289 289 289 290 291 292 291 292 291 291 291 292 292 291 290 290 288 288 287 285 285 284 282 281 279
286 286 286 286 286 286 286 285 284 284 284 284 284 284 284 284 285 286 285 285 286 286 286 286 286 286 286 286 286 286 286 288 289 289 289 290 289 287 287 287 287 287 287 288 289 289 290 290 290 290 291 290 291 292 293 291 289 288 288 288 288 288 288 290 291 292 292 292 292 292 293 293 294 294 294 294 290 287 285 283 282 282 280 279 278
285 284 285 285 285 285 285 284 283 283 283 283 283 283 284 284 285 286 285 284 284 285 285 286 286 286 286 285 285 285 285 286 287 288 289 289 288 287 286 286 286 286 286 287 288 288 289 288 288 289 289 289 290 291 292 291 288 288 288 287 287 287 288 289 289 289 290 291 291 291 291 292 292 293 293 293 293 290 285 282 284 283 280 280 277
282 282 283 284 284 284 284 283 282 282 282 282 282 282 283 283 284 285 284 284 284 285 285 285 285 285 285 285 285 285 285 285 287 288 289 289 288 286 287 286 286 286 286 286 287 287 288 288 288 288 288 289 291 291 292 290 288 288 288 287 286 286 287 288 288 287 287 287 287 287 287 288 288 289 288 290 291 288 286 286 285 282 280 280 279
280 281 282 282 282 282 282 281 280 281 280 281 281 282 282 283 282 282 282 283 284 284 284 284 283 283 284 284 285 285 285 285 286 288 288 289 289 287 286 286 285 285 285 286 285 286 287 287 288 289 290 291 291 291 291 291 289 288 288 287 286 286 288 288 288 288 287 287 287 287 287 287 287 287 287 287 288 287 286 286 285 284 282 281 280
279 279 280 280 280 280 280 280 279 279 280 280 280 281 282 281 281 281 281 282 282 282 282 282 283 283 284 284 285 285 285 285 286 287 288 288 289 288 286 285 285 285 285 285 285 285 286 286 287 288 290 290 290 291 291 291 291 289 288 287 287 288 289 288 287 287 287 287 286 286 286 286 286 286 286 286 286 286 286 286 285 285 284 282 280
278 277 278 278 278 278 278 278 278 278 279 279 279 279 280 280 281 281 282 281 280 280 281 282 282 283 283 284 284 284 285 285 285 286 287 288 288 288 286 285 286 285 285 285 285 285 285 286 286 287 288 288 289 290 290 290 291 289 289 290 290 290 288 288 288 288 287 287 286 286 285 285 285 285 285 285 285 285 285 285 285 285 285 285 282
276 276 277 276 276 277 276 276 276 277 277 278 278 278 279 280 280 280 280 280 280 280 280 281 281 281 282 283 284 284 284 285 285 285 286 287 287 288 288 287 288 286 285 284 284 285 286 286 286 286 287 288 289 289 289 290 289 288 290 290 290 290 289 288 287 287 286 286 285 284 284 284 284 284 284 284 285 285 285 285 285 284 281 281 282
274 275 275 275 275 275 275 275 276 276 277 277 277 277 278 278 279 280 280 280 280 280 281 281 281 281 281 281 282 283 283 284 284 284 284 286 287 287 287 287 287 286 285 285 285 286 286 286 286 287 287 287 287 287 288 288 287 288 289 289 289 288 288 287 286 286 286 285 284 283 283 284 284 284 284 284 284 282 278 278 277 277 276 276 276
273 273 273 273 273 272 273 274 275 276 276 276 276 276 277 277 277 278 279 279 279 279 279 280 280 280 280 280 280 281 282 282 282 283 284 284 285 286 286 287 287 287 285 285 285 285 286 286 287 286 286 286 286 286 286 286 287 287 288 288 287 287 286 286 286 286 284 283 283 284 284 284 284 284 283 277 274 274 273 272 272 271 271 270 270
271 271 271 271 271 271 272 273 274 274 274 275 275 276 276 276 276 277 277 278 278 278 278 278 278 278 278 278 278 279 280 280 281 281 282 283 283 284 285 285 284 284 284 284 284 285 285 286 286 286 286 285 285 285 285 285 286 286 286 286 286 286 286 286 285 285 283 284 284 283 284 284 282 277 275 275 275 273 272 271 271 271 272 271 269
269 269 269 269 270 271 271 272 272 273 273 274 274 275 275 275 276 276 276 276 276 276 276 276 276 276 276 277 277 278 278 279 279 280 281 281 281 282 282 282 283 283 283 283 284 284 284 284 285 285 285 285 285 285 285 285 285 285 285 285 286 286 286 285 285 284 284 284 284 284 283 278 275 275 275 275 274 273 273 273 273 272 271 270 268
268 267 268 269 270 271 271 272 271 272 272 272 273 273 274 275 274 274 274 275 274 274 275 275 275 275 275 275 276 276 276 277 278 278 279 280 280 280 281 281 281 281 281 282 283 283 283 284 284 284 284 284 285 285 285 285 285 285 285 285 286 286 285 285 285 285 285 285 285 282 276 275 274 274 275 274 273 273 274 273 272 271 270 269 267
267 267 268 269 269 270 270 270 271 271 271 272 273 274 273 273 274 274 275 276 275 275 274 275 275 275 276 275 275 274 275 276 277 280 280 281 280 280 279 280 281 281 282 284 282 282 282 282 282 283 283 283 283 283 283 284 284 285 285 285 285 285 285 285 284 284 284 284 283 278 275 275 275 275 274 273 272 272 273 272 272 271 271 271 268
267 267 268 269 269 269 269 270 270 271 271 271 272 272 275 276 276 274 274 276 277 278 278 275 276 276 275 276 277 275 275 276 280 281 281 281 282 282 282 283 283 282 283 284 282 280 280 280 281 281 282 282 282 282 282 283 283 283 284 284 284 284 284 284 284 284 284 284 282 276 275 275 274 274 273 272 272 272 273 273 271 271 270 268 266
266 268 268 268 268 268 268 269 270 270 270 271 270 270 269 271 274 275 275 275 276 276 277 277 278 278 276 274 276 279 279 280 280 280 281 281 281 282 282 282 283 283 284 282 280 280 280 279 280 281 281 281 282 282 283 283 283 283 283 283 284 283 283 284 284 284 283 283 278 276 276 275 273 273 272 271 271 271 271 272 272 271 269 268 266
264 266 266 267 267 268 268 268 268 268 268 268 268 268 267 267 268 271 273 273 274 274 275 276 277 277 277 277 276 275 277 279 279 279 280 280 280 281 282 283 283 283 283 283 279 279 279 279 280 280 281 281 282 283 283 283 283 282 282 282 282 283 283 283 284 284 283 280 276 276 276 275 274 273 272 271 271 271 271 270 270 269 269 268 267
263 263 264 265 266 266 266 266 266 266 266 266 266 266 266 265 265 265 268 272 273 273 274 275 275 276 277 277 277 277 277 277 278 278 279 279 280 280 281 282 282 282 282 279 277 277 278 279 279 280 281 281 282 283 283 283 282 282 282 282 282 282 283 283 284 283 282 280 277 277 276 275 274 273 272 271 271 270 270 270 269 269 268 266 265
261 263 263 264 264 265 265 265 265 265 265 265 265 265 265 265 265 265 265 266 267 270 272 273 274 274 275 276 275 275 276 276 277 277 278 278 279 280 280 278 280 281 280 277 277 277 279 279 280 281 282 282 282 283 282 282 282 282 282 282 282 282 283 283 283 282 280 279 277 277 276 275 274 272 271 271 271 270 270 269 269 268 267 266 264
261 263 264 264 264 264 264 265 265 264 265 264 264 264 264 265 265 265 265 265 265 265 266 268 271 273 272 272 274 275 275 276 276 276 277 277 278 279 279 275 274 275 277 278 278 279 279 280 280 281 281 281 282 282 282 282 282 282 282 282 282 282 282 281 281 281 279 278 277 276 275 274 273 272 271 270 270 269 269 269 269 268 267 265 265
261 263 263 263 263 264 264 264 264 264 264 264 264 264 265 265 265 265 266 266 266 265 266 267 268 270 271 272 273 274 274 275 275 275 276 277 277 278 273 272 273 274 275 276 277 278 279 280 280 280 281 281 282 282 282 282 282 282 282 282 281 281 280 280 280 279 278 278 277 276 275 274 273 272 271 271 271 270 270 270 269 268 267 265 264
261 262 263 263 263 263 263 263 263 264 264 264 264 264 265 265 265 265 265 265 265 265 266 266 266 266 268 269 270 271 273 274 274 275 275 276 277 275 273 272 272 273 274 275 277 278 279 279 280 280 281 281 281 282 282 282 282 282 282 282 282 281 280 279 279 278 277 276 276 275 274 273 272 272 271 271 271 270 270 270 269 267 266 265 264
260 261 262 261 262 262 263 263 264 265 264 265 265 265 265 265 265 265 265 265 265 265 264 265 266 265 265 266 269 269 269 271 272 273 273 274 272 272 272 273 273 274 274 276 278 278 278 279 280 280 281 281 281 282 282 282 282 282 281 281 280 280 279 279 278 278 277 276 275 274 274 273 272 272 272 271 270 270 269 269 268 266 265 264 264
262 262 263 263 263 263 263 264 264 264 264 264 265 265 264 264 265 264 264 264 264 264 265 265 265 265 265 267 267 268 269 268 268 268 269 270 271 272 272 273 273 275 276 277 278 278 278 279 280 281 281 281 281 282 282 281 281 281 281 279 278 277 277 277 276 276 275 275 274 274 273 273 273 273 272 271 270 270 269 269 268 266 265 264 264
261 261 263 263 263 263 264 264 264 264 264 264 264 264 264 264 264 264 264 264 264 264 265 265 265 265 266 267 267 268 267 267 267 268 269 270 271 272 273 274 274 275 275 276 277 277 277 277 278 279 280 281 281 281 281 281 281 279 278 278 276 276 276 276 275 275 274 274 274 273 273 272 273 272 272 271 270 270 269 268 267 266 266 265 264
262 261 262 263 263 263 263 264 264 264 264 264 264 264 264 264 264 264 264 264 264 264 264 264 264 265 266 267 269 269 267 267 268 269 269 270 271 271 271 272 273 273 273 273 273 273 274 275 277 278 279 280 280 280 280 279 277 276 276 276 275 275 274 274 274 273 273 273 272 272 272 273 272 271 270 270 270 270 268 267 266 266 265 264 264
261 261 262 262 263 263 263 263 264 264 264 264 264 264 264 264 264 264 264 264 264 264 264 264 264 265 266 267 268 269 267 267 268 268 268 268 268 268 269 270 271 271 270 270 271 271 272 275 276 277 278 279 279 278 277 276 275 275 275 274 274 273 273 272 272 272 272 272 272 272 272 272 271 271 270 270 269 268 267 267 266 265 265 264 263
260 261 262 262 262 263 263 263 263 263 263 263 263 264 264 264 264 264 264 264 263 263 263 263 264 265 265 267 267 267 266 266 266 266 266 266 267 267 267 267 268 268 268 268 269 270 271 272 274 276 275 275 275 275 275 275 275 275 274 274 273 272 272 271 271 271 271 271 271 271 271 270 269 269 268 268 268 267 267 266 265 264 263 262 261
261 261 262 262 262 263 263 263 263 263 263 263 263 263 263 263 263 263 263 263 263 263 263 263 263 263 264 265 265 264 264 264 264 264 264 265 265 265 265 265 266 266 266 266 267 268 269 270 272 273 273 273 274 274 274 274 274 274 274 273 272 271 270 270 270 270 271 270 270 270 269 268 268 268 267 267 267 266 265 264 263 263 262 262 261
260 261 261 261 262 262 262 263 263 263 263 263 263 263 263 263 263 263 263 262 263 263 263 263 263 263 263 263 263 263 263 263 263 263 263 263 263 264 264 264 264 264 264 265 267 267 267 268 269 270 270 270 271 272 273 274 274 274 273 272 271 270 270 270 271 271 271 270 270 269 268 267 267 267 266 266 266 265 264 263 262 261 261 261 260
260 260 260 261 261 261 262 262 262 262 262 262 261 262 262 262 262 262 262 262 262 262 262 262 262 262 262 262 262 262 262 262 262 262 263 263 263 263 263 263 263 263 264 265 265 265 265 266 266 267 267 268 268 268 269 269 270 271 272 272 272 271 271 271 270 270 270 270 269 268 267 266 266 265 265 265 265 265 264 263 262 262 261 260 260
259 259 260 260 261 261 261 261 261 261 261 261 261 261 261 261 262 262 262 262 262 262 262 261 261 261 261 261 261 261 262 261 261 261 262 262 262 262 262 262 262 262 262 263 264 264 264 264 264 265 265 265 265 266 266 266 267 268 269 270 271 271 271 271 271 271 270 270 269 268 266 266 264 264 264 264 263 262 262 262 261 261 260 260 259
259 259 260 260 260 260 260 260 260 261 261 261 261 261 261 261 261 261 261 261 261 261 261 261 261 261 261 261 261 261 261 261 261 261 261 261 261 261 261 261 261 261 261 262 262 262 262 263 263 263 263 263 263 263 264 264 265 265 267 268 268 269 268 268 270 270 269 269 268 267 266 265 264 264 263 263 262 262 261 260 260 260 259 259 259
259 259 259 259 260 260 260 260 260 260 260 260 260 260 260 260 260 260 260 260 260 260 260 260 260 260 260 261 261 261 261 261 260 261 261 261 261 261 261 260 260 260 260 260 260 261 261 262 262 262 263 263 263 263 262 263 263 264 266 267 268 268 267 267 267 268 266 268 267 266 265 264 263 263 263 262 261 261 261 260 260 259 259 259 258
258 258 258 259 259 259 260 260 260 259 259 259 259 259 259 260 259 260 260 260 260 260 260 260 260 260 260 260 260 260 260 260 260 260 260 261 261 260 260 260 260 260 260 260 260 260 260 261 261 262 263 263 263 263 263 263 264 264 265 266 266 266 265 265 266 265 266 267 266 265 264 263 262 262 261 261 260 260 259 259 258 258 258 258 258
257 257 258 258 258 258 259 258 258 258 258 258 258 258 258 258 259 259 259 259 258 259 259 259 259 259 260 260 260 260 260 260 260 260 260 260 260 260 260 259 259 259 259 259 259 260 260 260 261 263 263 263 263 263 263 263 264 264 265 265 265 264 264 264 264 264 264 264 264 263 263 262 261 260 260 260 260 259 258 257 257 258 258 258 257
Wind_Speed
6 6 5 6 6 6 5 5 5 4 4 4 3 4 4 4 4 4 3 3 3 3 3 3 4 4 4 5 5 5 6 6 5 5 5 5 7 7 7 8 9 8 7 9 7 8 9 10 10 10 9 10 8 8 8 9 7 8 7 7 8 6 8 9 14 19 20 10 9 12 7 5 6 7 9 7 6 6 7 7 7 7 8 8 9
6 6 6 6 6 6 6 5 5 5 5 5 5 5 5 5 4 4 4 4 3 3 3 3 3 4 4 4 5 5 6 6 6 6 6 6 7 5 6 7 8 9 8 9 8 7 7 9 10 10 9 10 10 10 10 9 8 9 9 9 10 10 9 11 14 15 22 17 8 7 9 6 12 6 9 9 8 6 8 8 6 7 8 7 6
6 6 6 6 7 6 6 6 6 6 6 5 6 6 6 5 5 5 5 5 4 4 4 4 4 4 4 4 5 5 5 5 6 6 7 8 8 8 7 8 8 8 8 9 8 8 9 9 11 9 8 10 10 10 10 11 9 10 12 9 11 11 10 12 13 16 19 20 14 9 11 5 8 8 7 8 7 6 7 8 8 6 5 6 5
6 6 6 7 7 7 7 6 6 6 6 6 6 6 5 4 4 5 5 4 5 5 4 5 4 4 4 4 4 5 5 5 5 6 7 7 8 9 8 8 8 9 9 9 8 8 9 10 10 9 9 11 11 11 10 9 10 10 11 10 11 13 11 10 13 13 14 17 18 11 8 10 8 7 5 3 5 6 7 5 3 6 5 4 6
5 6 7 7 7 7 7 6 7 7 6 5 5 5 4 4 4 5 5 5 4 4 4 4 4 4 4 5 5 5 5 5 5 6 6 6 7 8 9 8 8 9 10 10 10 9 10 10 11 9 9 11 12 10 10 11 10 10 11 10 11 11 10 10 11 11 13 17 17 13 9 10 9 2 3 5 4 5 3 5 5 5 4 5 6
5 6 6 7 7 8 7 6 7 6 5 5 5 5 4 4 4 4 4 4 4 4 4 3 3 4 4 5 5 5 5 5 5 6 6 6 6 7 7 8 9 9 10 10 9 9 10 11 10 10 10 12 13 11 10 11 10 11 12 11 11 10 11 11 11 12 14 16 15 16 12 10 9 8 5 6 6 6 5 4 2 4 5 7 8
6 7 7 7 7 7 6 6 5 5 5 5 4 4 4 4 4 4 3 2 3 3 3 3 2 3 4 4 4 5 5 4 5 6 6 6 7 6 7 7 8 8 9 9 9 10 10 10 11 10 11 12 12 12 11 11 11 12 12 11 12 11 12 12 11 12 13 14 14 14 14 12 10 12 6 6 8 8 8 4 5 6 7 7 7
6 7 6 7 6 6 5 4 4 4 4 4 4 4 4 4 4 3 3 4 3 3 4 4 3 3 3 3 4 4 4 4 5 5 6 6 6 6 7 7 8 8 9 9 9 10 11 11 11 11 12 12 12 12 11 12 10 12 11 10 11 12 12 11 11 11 12 13 14 14 11 12 9 3 3 4 5 6 6 8 11 8 7 8 9
6 6 6 6 5 4 4 3 3 4 4 4 4 4 4 3 3 3 3 3 3 3 3 4 4 4 3 3 4 4 4 4 3 4 6 7 7 8 8 8 9 10 10 10 9 10 10 10 11 12 13 16 18 17 16 14 11 12 13 10 11 12 12 11 11 11 11 12 13 11 11 12 12 8 7 7 10 12 7 8 9 6 4 6 6
6 6 6 5 4 4 4 4 4 3 4 4 5 5 4 4 5 4 4 4 4 4 4 4 4 4 5 5 5 4 5 4 6 9 9 7 8 7 8 9 9 9 10 11 11 10 11 11 12 16 17 18 18 20 20 20 20 18 16 13 12 11 11 11 11 11 10 12 13 12 13 14 13 11 11 12 8 6 5 7 9 7 3 5 2
6 6 6 5 4 4 4 4 4 5 5 5 5 6 6 6 6 5 5 5 5 5 5 5 5 5 6 6 7 6 6 6 11 11 12 13 9 9 9 9 9 10 10 11 12 12 11 11 11 13 13 14 16 20 20 21 22 23 25 25 20 16 13 14 14 11 11 12 12 12 13 15 15 10 11 9 7 9 9 8 9 6 8 7 9
6 6 5 5 5 5 5 5 5 5 5 6 5 6 5 4 5 6 6 5 6 6 6 6 6 6 6 6 7 6 7 10 13 13 13 14 13 10 9 9 9 10 10 11 12 12 13 13 11 10 10 11 12 12 15 19 21 22 24 24 24 24 23 18 16 13 12 12 13 14 14 14 14 10 10 7 8 8 10 9 9 10 10 10 9
6 6 5 5 5 4 4 4 4 4 5 5 4 3 3 4 4 4 5 6 6 6 7 7 7 7 7 8 8 8 8 11 13 15 15 16 16 14 10 10 11 12 12 12 13 13 13 13 13 11 10 14 13 12 13 15 17 21 22 23 24 25 24 26 25 19 13 14 15 17 16 14 12 12 8 7 6 10 8 8 9 10 11 12 11
6 5 4 4 3 3 3 3 4 4 4 5 4 3 3 4 4 4 4 5 5 5 5 8 7 7 7 8 9 9 9 11 14 16 16 16 17 14 11 12 12 13 14 14 13 14 14 14 14 14 12 10 10 11 11 13 14 13 14 14 14 17 21 25 25 25 22 17 16 18 18 13 13 12 8 5 8 11 10 12 11 11 11 14 13
4 3 2 2 3 3 4 4 4 4 5 3 3 4 4 4 5 4 4 4 5 6 7 7 6 6 8 8 9 10 9 12 15 17 16 17 17 15 11 11 12 13 13 13 14 15 16 14 15 16 15 13 11 12 12 14 12 12 13 14 14 13 14 13 13 13 15 16 17 18 18 16 14 14 11 7 12 12 12 14 14 14 11 4 3
3 2 2 3 4 4 4 4 5 4 5 4 5 5 5 6 7 6 4 4 5 5 5 5 7 9 8 7 8 11 11 12 14 16 17 16 18 11 10 11 12 13 14 15 15 15 15 15 14 15 16 15 15 17 17 14 12 15 16 15 15 14 14 14 15 16 16 16 14 15 15 15 16 14 12 10 8 8 6 2 3 6 6 6 8
3 3 3 3 4 4 5 5 6 4 5 5 5 5 6 7 6 4 5 6 6 6 7 7 7 7 9 8 9 11 12 12 13 16 18 19 14 9 10 10 11 14 15 15 15 15 15 14 14 14 15 15 17 18 18 16 13 16 16 16 16 15 14 11 14 20 23 23 23 23 23 23 23 22 22 21 13 9 6 7 9 9 9 8 6
3 3 3 4 4 4 4 4 4 4 4 4 5 5 6 5 4 4 5 7 7 7 7 8 7 6 8 10 10 11 13 16 16 15 17 18 14 10 10 12 13 14 15 16 15 14 15 21 18 15 16 18 20 21 21 17 14 15 15 16 18 17 15 12 9 12 17 20 22 23 22 23 23 24 25 23 20 14 11 16 13 9 10 11 9
3 3 3 3 3 4 4 3 3 3 4 4 4 5 5 4 4 5 5 6 8 7 7 9 11 10 8 9 14 14 13 16 19 17 17 17 14 9 10 11 14 15 14 16 16 14 15 14 19 17 16 18 24 24 24 18 14 14 14 14 16 18 16 12 10 11 10 10 11 11 13 17 16 14 14 20 19 18 14 14 8 12 13 11 9
2 3 3 3 3 3 2 2 2 3 4 4 5 4 4 4 5 7 7 5 7 8 9 9 12 13 12 10 11 11 13 14 17 22 19 19 18 12 9 11 14 16 15 15 16 16 16 15 15 19 21 21 22 24 23 22 16 13 12 14 15 18 14 11 11 11 11 12 12 10 12 11 11 10 10 11 12 14 14 11 10 11 12 11 12
2 3 3 3 3 3 2 2 3 3 3 5 5 5 4 6 8 8 9 8 8 10 11 11 12 13 13 12 12 12 12 14 16 22 23 22 21 18 11 13 14 14 14 16 16 17 16 15 13 18 21 21 21 21 21 21 19 14 13 14 14 16 15 12 13 15 12 12 11 10 10 9 9 9 8 8 9 9 10 11 10 10 11 11 10
3 3 2 2 2 2 2 3 4 5 5 6 8 8 7 7 7 7 6 8 10 11 11 10 10 13 13 13 12 13 14 18 16 20 22 24 22 22 15 13 14 14 15 15 17 16 16 14 14 19 24 23 23 22 23 22 22 15 15 20 22 22 17 13 12 11 10 10 9 10 9 9 9 8 9 8 8 9 10 10 9 9 8 9 11
3 2 2 3 4 5 7 9 7 7 7 7 7 9 8 8 8 7 8 9 10 12 11 11 11 13 14 13 13 13 12 13 17 17 19 21 23 22 23 19 20 16 14 16 16 17 15 15 17 22 23 22 21 21 22 24 19 15 21 21 21 22 19 13 12 11 11 10 10 7 9 9 8 7 9 8 8 9 9 8 6 5 3 4 3
2 3 5 6 7 7 7 7 7 6 6 7 7 8 8 8 8 7 6 9 9 11 10 11 11 13 14 15 15 14 13 13 15 19 19 21 22 23 24 25 24 16 14 14 14 14 14 15 17 24 26 27 31 33 32 28 20 27 29 26 22 20 14 12 11 11 11 10 7 7 10 9 8 8 7 8 6 4 6 8 9 9 9 9 10
5 6 7 6 7 7 6 6 5 5 5 6 7 7 7 7 8 7 7 7 8 9 9 9 10 11 13 16 16 16 15 15 15 17 21 20 21 21 22 22 23 22 15 11 13 14 18 26 29 29 29 33 36 34 28 27 30 29 27 26 22 13 13 12 12 11 11 11 11 11 11 9 8 7 3 7 9 8 8 7 8 10 11 13 12
6 6 6 6 6 5 6 5 4 4 6 5 5 6 7 8 7 7 6 7 7 8 9 11 11 13 13 14 15 16 17 16 16 16 15 17 17 18 19 20 21 21 21 20 24 29 29 26 27 27 24 21 17 14 15 16 20 22 21 20 13 12 11 11 11 11 11 11 11 10 10 7 3 5 8 9 8 7 9 8 8 6 10 12 12
5 5 5 5 4 4 5 4 6 5 4 4 5 5 5 5 7 7 6 7 9 9 9 9 10 10 12 14 15 15 16 16 16 15 14 14 13 14 15 16 20 22 17 15 16 16 19 20 17 20 22 28 28 26 23 22 19 17 14 12 12 12 11 11 11 11 11 10 10 10 5 4 6 7 8 8 8 6 8 11 10 8 9 11 14
4 4 4 3 3 3 3 6 6 5 4 5 5 5 5 5 6 7 6 7 9 10 10 9 9 10 12 14 15 15 17 16 16 15 15 15 17 17 16 17 16 14 16 15 14 16 18 19 22 19 16 15 14 12 11 10 11 11 11 10 10 10 11 14 13 10 10 10 9 3 5 5 5 5 7 7 8 8 7 9 11 10 10 13 11
3 2 2 2 2 3 4 4 4 5 6 6 5 5 6 6 7 9 8 6 7 9 10 12 12 10 11 14 16 17 17 18 17 18 24 29 26 22 18 17 16 16 18 26 23 19 18 18 16 17 15 15 14 14 13 11 11 11 11 10 10 9 9 8 9 11 10 8 8 7 7 6 7 8 7 8 7 7 6 7 9 13 7 9 14
2 1 1 2 2 3 4 4 4 5 5 6 8 8 8 11 11 10 12 12 14 17 17 13 13 13 15 14 13 15 16 18 29 38 36 36 36 35 32 32 31 26 29 36 27 20 18 16 16 15 15 14 14 14 13 11 11 10 10 11 10 9 8 8 8 9 8 9 6 7 7 7 7 7 8 7 7 6 6 10 9 9 11 10 12
3 2 2 2 3 4 4 5 5 5 6 7 7 9 11 8 10 14 17 19 21 21 19 21 23 22 17 16 18 27 31 32 32 32 34 35 37 38 37 34 34 32 32 25 19 16 17 15 15 15 15 15 14 14 12 11 11 10 11 10 9 9 9 9 8 8 7 7 6 8 9 9 6 8 10 9 9 8 7 5 7 7 10 12 12
2 2 2 3 4 4 4 4 5 5 5 5 6 8 9 12 13 7 7 11 18 22 23 23 21 20 21 19 18 17 24 31 34 33 33 34 33 35 36 37 35 33 31 31 20 18 17 16 15 15 15 15 14 13 12 11 10 10 11 10 10 8 8 9 9 8 8 6 8 8 9 9 9 10 9 10 10 9 9 8 7 8 7 8 10
3 3 3 3 3 4 4 3 4 4 5 6 6 6 7 9 11 15 17 15 14 15 18 19 20 21 22 22 22 22 25 29 34 35 34 32 33 32 34 36 35 34 33 21 16 18 16 16 16 15 15 15 14 13 12 11 10 10 10 10 10 9 8 9 9 8 7 7 9 9 9 9 9 9 9 9 10 10 9 9 8 9 9 10 9
4 2 2 2 3 3 3 3 4 4 5 5 6 6 6 6 8 11 14 17 19 14 7 7 11 18 20 24 27 26 25 26 29 32 33 33 33 31 30 27 34 34 25 17 16 16 16 16 15 14 13 13 13 12 11 11 10 10 10 10 10 10 10 8 7 8 6 7 8 8 9 9 10 10 9 8 7 8 9 9 10 10 8 10 9
2 4 5 3 2 2 2 3 3 4 5 5 5 6 6 7 8 10 11 13 14 15 16 13 11 14 17 18 24 28 27 26 27 28 31 32 32 32 32 20 18 16 14 12 13 14 16 16 15 15 14 15 14 13 12 12 10 10 10 10 10 10 8 6 7 6 7 7 8 8 9 10 10 10 12 11 10 8 9 9 8 10 11 11 11
2 1 1 1 1 2 2 3 3 4 5 5 5 6 7 8 10 10 11 12 12 14 14 13 12 15 22 21 23 26 30 29 27 28 28 30 30 30 19 15 15 14 14 14 14 15 15 15 14 14 14 15 14 13 11 12 11 10 10 10 10 9 7 6 5 6 7 8 8 10 9 9 10 10 9 10 13 12 10 10 9 9 11 11 11
1 1 0 1 1 2 3 4 4 5 6 7 7 6 8 8 9 10 11 11 12 12 13 14 14 13 13 10 13 21 27 28 29 28 27 26 29 20 13 15 15 15 15 15 14 14 15 15 14 14 14 15 14 13 12 11 10 10 10 10 9 7 6 6 6 6 7 7 7 9 10 10 10 10 11 11 8 8 9 9 9 10 11 11 11
2 1 1 1 2 3 3 4 4 7 6 5 5 6 7 7 9 10 11 11 12 12 13 13 12 13 14 14 17 14 18 24 27 22 18 17 15 13 14 14 15 15 15 14 13 13 15 14 13 14 13 13 13 12 11 11 10 10 9 8 7 6 7 7 6 7 7 7 8 8 8 9 9 10 10 10 11 10 9 9 10 11 10 9 10
1 3 4 5 4 3 3 4 5 5 5 5 5 6 8 8 9 8 9 9 10 11 11 11 11 11 12 12 13 15 19 16 16 17 16 14 12 12 13 14 15 14 14 13 14 15 14 14 14 13 12 12 12 12 11 11 10 9 7 5 3 2 3 3 5 5 6 7 7 8 8 9 9 9 9 10 10 10 10 10 10 11 11 9 8
1 1 2 3 3 4 4 5 5 5 6 5 6 6 7 7 8 9 10 10 10 10 10 12 12 11 12 13 13 15 17 18 17 16 15 16 13 12 12 12 13 13 15 14 14 14 16 16 15 14 13 12 12 11 11 10 9 5 3 3 4 4 4 5 6 6 7 7 7 8 8 9 9 9 8 8 10 10 12 11 10 10 10 10 9
1 2 3 3 3 4 4 5 4 4 4 5 6 6 6 8 8 9 9 10 10 11 11 11 11 11 11 15 24 23 16 16 16 15 15 16 15 15 15 14 14 14 15 15 15 14 15 15 14 13 13 13 12 10 8 5 2 1 1 1 1 2 3 3 4 5 5 7 7 7 8 9 9 10 10 8 8 9 9 10 10 9 9 9 10
1 2 2 2 3 2 3 4 5 5 5 5 5 5 7 8 8 8 9 10 10 11 11 11 11 10 14 24 22 26 17 13 14 15 15 15 15 15 15 15 14 13 13 12 13 15 15 15 14 14 13 11 9 6 5 3 2 1 0 1 2 3 4 4 4 4 5 6 7 7 8 8 8 8 10 10 10 9 10 9 9 10 9 9 9
2 2 2 2 2 3 4 4 4 4 4 4 4 6 7 7 7 8 8 9 9 10 11 12 12 11 12 17 20 22 13 12 12 15 15 15 15 15 15 15 14 13 13 13 12 12 14 14 13 12 9 8 6 6 5 4 3 2 1 1 2 3 4 5 5 5 5 6 7 8 9 9 9 9 9 9 10 10 10 10 10 9 9 9 9
1 2 3 3 4 4 4 4 4 4 3 5 7 7 7 6 7 7 7 8 8 9 10 11 11 13 13 13 14 12 12 13 13 13 15 15 15 15 14 14 13 13 13 13 12 11 12 12 11 10 9 8 7 6 5 4 4 2 1 1 2 3 4 5 6 7 7 8 8 9 8 8 9 9 9 9 10 11 10 10 10 10 9 9 9
2 2 2 2 3 3 3 3 3 4 5 6 4 5 6 6 7 7 8 8 9 9 9 10 10 11 12 12 12 12 12 12 14 14 14 14 14 14 14 13 13 14 13 13 12 11 11 10 10 10 9 8 8 8 7 6 5 4 4 3 2 3 2 3 4 5 6 9 9 9 9 9 9 9 9 9 10 10 10 10 10 10 9 9 9
1 1 2 2 3 4 4 3 4 3 4 4 5 5 5 6 6 7 8 8 9 9 9 9 9 10 11 11 11 11 11 12 13 13 13 13 13 13 13 13 13 13 13 12 11 11 11 10 10 9 9 8 8 8 7 8 7 7 6 5 4 3 3 4 4 5 6 7 9 9 9 8 8 8 10 10 8 9 9 9 9 9 9 9 8
1 2 2 3 2 4 4 5 3 3 4 5 5 5 6 6 6 7 8 8 9 9 8 9 9 9 9 9 10 10 11 11 11 12 13 14 14 13 12 13 13 12 12 11 11 11 11 10 10 9 9 8 8 8 8 7 7 6 6 6 4 4 4 5 5 5 5 5 6 9 9 9 9 9 9 10 9 9 10 9 9 10 9 9 9
1 1 2 3 3 3 3 3 4 6 5 5 4 5 6 7 7 7 7 7 7 7 8 7 8 8 10 9 9 10 10 10 10 11 11 11 11 12 13 13 12 12 12 11 11 11 11 10 10 10 9 8 8 7 7 7 6 7 6 5 5 5 6 6 5 6 5 5 5 7 10 10 9 9 9 9 9 9 10 9 8 8 8 9 8
1 1 2 2 3 3 4 4 5 4 4 4 5 6 6 6 6 6 6 6 7 7 7 7 8 8 8 9 9 9 9 10 10 10 10 11 11 11 11 12 12 11 11 10 11 11 11 11 11 9 9 8 8 8 7 7 6 6 6 5 7 12 12 11 7 6 8 7 7 8 9 9 10 9 9 9 9 8 8 8 9 9 9 9 9
1 2 2 3 4 4 4 4 4 4 5 5 5 5 6 6 6 6 6 5 6 6 6 7 7 7 8 8 9 10 9 9 10 10 10 10 10 10 11 11 11 10 10 10 10 10 10 10 9 9 9 9 9 8 7 7 7 7 7 7 13 13 13 12 11 9 7 6 7 7 9 9 9 8 7 8 9 9 10 9 9 8 9 9 9
2 2 3 3 3 4 4 4 4 4 4 4 4 5 6 6 6 6 6 6 6 6 7 7 7 7 7 8 8 8 9 9 9 8 9 9 10 10 10 11 11 11 10 10 9 9 9 9 9 10 9 9 9 9 8 7 7 7 10 13 12 12 11 9 7 9 10 8 8 9 9 10 10 10 8 8 8 9 9 10 9 9 8 8 8
Wind_Direction
78 79 86 83 85 80 78 69 65 60 63 50 54 44 38 24 16 354 339 15 15 8 356 348 337 332 325 318 316 313 310 305 304 302 293 285 284 284 291 292 286 281 277 273 262 263 264 265 264 262 263 262 261 259 254 251 243 242 239 236 240 222 220 239 253 267 279 254 251 266 256 217 239 206 227 230 228 230 232 237 231 229 231 231 234
82 85 80 78 75 73 69 68 62 59 58 50 44 41 33 30 9 352 1 11 13 7 12 2 349 338 328 319 314 312 308 309 309 305 297 294 289 284 281 279 279 277 278 277 272 268 267 266 267 265 259 260 261 258 256 255 246 246 240 236 243 238 221 238 251 261 273 283 252 259 264 197 254 194 216 227 235 215 227 229 231 227 232 233 230
72 75 77 75 72 69 66 55 50 54 54 46 39 33 29 25 12 3 2 1 1 14 5 1 348 340 326 321 320 316 318 316 314 308 303 298 294 293 291 290 286 285 281 275 275 274 269 265 267 267 267 264 260 259 257 255 253 248 250 239 243 242 229 226 242 254 263 272 274 266 264 238 229 244 219 228 237 223 232 232 227 232 231 227 230
79 82 82 81 77 72 66 65 57 54 57 47 36 31 22 20 13 10 1 358 359 1 0 357 349 335 329 321 318 315 313 310 306 302 297 294 292 291 291 288 284 282 280 280 279 274 269 272 268 268 267 264 263 261 258 256 252 251 253 246 244 247 235 232 231 247 261 273 275 266 267 277 258 238 236 209 218 224 232 249 234 233 228 222 229
81 84 83 79 71 67 62 56 53 48 47 43 33 29 18 18 12 10 0 0 354 353 352 351 339 333 326 319 311 307 299 294 292 290 288 286 285 284 284 283 280 279 277 278 277 273 271 266 271 269 267 265 267 260 263 258 253 252 251 249 246 247 244 233 236 238 252 261 274 274 267 262 271 268 180 205 230 232 237 235 231 228 220 221 226
75 78 76 74 66 60 53 49 48 46 41 39 35 29 23 21 13 9 1 350 349 356 354 338 339 319 317 314 303 296 293 284 273 269 266 267 269 271 269 271 277 276 275 271 269 266 265 266 265 264 261 260 266 266 262 261 259 254 254 253 249 249 248 243 237 239 243 253 262 276 270 259 262 249 189 203 219 227 221 228 214 211 211 224 224
74 74 71 70 67 58 54 50 45 43 38 33 28 25 25 21 13 7 352 340 356 352 349 340 322 311 301 303 298 295 294 287 286 284 282 280 277 276 270 268 268 272 272 267 266 265 262 263 263 259 258 258 261 264 264 263 258 258 255 253 253 248 250 248 240 241 243 251 257 258 268 262 248 259 209 192 213 219 222 208 239 215 220 213 226
75 75 74 70 67 62 55 49 49 40 33 31 30 26 20 16 9 354 349 350 356 351 342 335 318 303 294 285 284 288 288 288 283 286 289 293 293 285 281 279 280 276 276 273 269 266 262 261 259 257 254 257 257 260 257 260 261 261 257 251 253 250 250 252 247 243 246 249 253 261 255 265 256 220 92 167 207 235 212 210 238 227 211 222 219
81 79 76 73 66 60 55 44 42 39 31 33 27 19 14 5 357 343 347 347 339 339 328 324 318 310 303 296 294 288 284 283 282 296 309 302 295 295 291 284 285 286 283 279 274 270 267 261 259 257 253 252 252 253 254 253 259 265 262 250 252 253 254 253 252 249 249 252 258 256 261 259 256 239 213 213 215 230 209 209 239 243 204 218 227
86 84 77 71 61 55 52 42 37 33 27 26 21 12 7 358 345 347 346 345 331 324 320 313 307 307 310 308 303 298 287 283 283 289 288 288 294 288 286 284 282 279 281 282 277 268 267 266 262 256 255 256 254 254 254 253 250 249 260 260 254 254 255 256 253 250 250 252 253 257 256 257 257 242 239 237 224 224 209 199 223 225 137 224 228
82 77 74 63 55 49 47 32 25 31 23 19 9 9 1 356 347 344 344 337 329 332 323 319 318 311 306 304 303 301 296 292 296 293 294 292 290 286 283 283 278 276 277 278 280 280 272 266 268 267 261 255 254 253 254 254 253 251 251 252 250 249 258 257 256 249 249 251 257 254 252 259 258 251 242 245 213 214 217 208 217 196 199 199 226
78 71 63 54 46 38 35 22 24 22 19 11 1 357 339 344 340 338 334 333 330 321 315 311 311 309 304 297 293 293 294 292 294 297 295 293 289 286 285 282 279 275 273 274 276 279 278 277 270 266 261 258 260 262 255 251 250 250 252 252 251 247 243 245 255 258 248 251 254 253 255 251 260 252 246 227 223 211 215 209 211 202 206 215 221
68 63 48 41 34 29 23 21 20 16 11 357 350 337 335 340 342 340 330 319 309 312 315 309 306 303 297 298 298 295 293 292 294 294 294 291 289 287 282 279 278 277 275 273 273 274 274 275 277 268 262 253 252 255 259 263 258 253 253 255 253 250 248 245 244 246 254 253 253 256 250 253 254 255 238 224 206 218 206 212 214 213 213 218 224
62 60 53 35 31 28 23 21 19 10 2 356 343 343 341 338 337 322 309 311 311 313 309 305 302 302 303 299 295 292 286 289 288 288 287 285 284 282 277 277 275 275 274 273 273 274 272 274 277 278 274 259 250 253 255 259 262 263 260 255 254 251 249 247 247 247 245 246 249 253 255 252 251 258 247 201 201 215 207 219 210 212 212 219 221
65 67 65 39 27 28 21 22 14 8 354 345 339 335 339 337 332 328 321 319 319 317 311 312 306 299 298 294 291 289 283 282 285 284 284 284 284 282 276 275 275 275 275 271 269 271 273 273 273 276 279 275 263 254 260 261 263 263 262 262 258 256 253 248 241 240 244 244 247 250 258 257 256 256 256 223 214 220 211 216 207 208 213 219 60
75 56 50 34 27 21 21 20 7 1 353 349 344 340 338 333 327 321 311 304 299 287 290 285 292 294 289 289 291 290 292 286 283 285 286 285 285 283 276 274 275 276 276 275 271 271 271 272 274 274 274 275 270 257 251 256 262 263 263 264 264 259 255 248 243 239 240 242 244 248 252 255 254 253 250 243 229 228 221 177 135 174 165 179 191
59 43 36 25 21 20 16 13 3 354 345 342 334 329 325 321 312 299 300 296 289 291 290 288 286 288 293 292 292 292 294 291 287 286 287 286 288 283 282 277 275 276 276 277 274 271 269 268 269 272 273 273 270 264 260 254 258 261 264 267 267 266 264 259 242 242 244 246 250 250 254 257 259 257 256 250 234 209 182 189 200 175 171 187 178
45 25 25 21 19 19 15 9 355 344 335 324 314 308 304 288 285 300 297 304 301 298 296 295 293 291 292 296 294 295 294 294 289 281 280 281 277 277 278 281 277 277 279 277 277 274 269 267 261 264 269 272 274 272 267 261 260 261 264 267 270 270 268 263 255 249 247 248 250 252 254 258 260 260 259 255 244 207 184 206 201 172 195 193 185
26 11 13 15 20 19 13 5 350 335 316 302 303 300 292 290 302 307 303 300 298 299 307 308 307 304 296 292 295 294 295 296 295 290 285 283 283 275 274 275 278 278 281 283 282 281 279 273 265 259 258 267 272 271 268 263 258 257 259 262 265 268 267 267 261 260 253 251 249 251 253 255 257 256 256 252 238 208 204 211 183 184 194 196 177
356 0 5 11 23 14 10 4 335 310 303 304 302 299 306 308 325 325 317 307 310 315 314 310 306 303 304 301 297 295 297 297 298 298 296 294 290 284 277 278 279 281 283 284 287 286 285 283 276 272 268 265 265 267 268 264 258 255 255 256 260 264 269 271 258 257 259 255 257 244 246 245 248 247 247 243 231 212 209 206 199 194 196 193 184
355 6 0 11 16 6 352 342 318 311 321 322 318 321 324 329 326 328 321 316 312 309 307 306 304 301 302 303 301 299 296 297 298 298 300 299 296 293 285 278 277 280 284 286 283 285 287 286 287 283 281 279 276 275 273 270 262 255 249 252 251 263 274 273 268 259 258 258 256 252 248 245 243 242 237 231 221 210 205 206 204 200 195 196 183
4 352 11 10 357 349 353 343 346 347 344 343 340 333 332 325 317 316 310 304 303 302 302 305 305 303 304 304 303 300 301 300 299 299 299 301 299 296 291 283 281 286 285 279 281 281 281 285 286 288 290 289 286 281 278 275 269 259 255 255 260 263 267 267 269 266 258 254 251 249 246 238 241 233 229 223 215 206 203 202 201 199 202 203 190
351 357 6 5 10 7 6 359 353 352 346 344 336 323 320 318 314 310 301 302 305 305 307 310 310 308 307 305 303 300 300 299 294 295 298 301 301 299 295 293 290 287 282 281 280 282 285 285 286 288 290 291 291 291 288 283 277 267 265 263 261 262 265 264 263 262 256 252 247 235 240 241 227 224 219 219 213 204 204 190 179 159 89 52 69
4 21 23 17 10 9 359 354 350 338 335 330 325 314 313 312 309 307 310 310 305 307 309 313 312 310 311 310 308 308 308 306 303 302 303 304 302 302 301 298 296 292 287 282 284 285 288 289 291 293 294 294 294 293 290 285 278 277 276 273 271 268 264 263 260 257 256 243 231 228 242 239 235 225 216 208 198 131 82 75 81 87 86 71 61
27 27 22 11 7 357 345 336 326 328 333 324 313 308 308 316 313 312 312 304 301 300 300 305 308 308 309 307 308 309 309 309 306 303 304 304 302 302 301 300 304 307 305 305 301 298 293 290 289 290 291 291 292 292 289 282 278 276 271 267 265 262 259 256 257 256 246 239 240 243 245 239 225 217 154 102 95 99 92 70 76 88 92 86 72
31 26 16 4 352 333 335 327 326 327 314 306 300 298 302 305 300 304 304 299 298 299 304 310 309 309 303 302 304 305 306 306 305 306 311 309 309 310 312 315 315 315 308 297 294 293 292 288 285 284 285 284 286 286 285 283 280 276 270 263 257 253 250 252 251 249 241 246 246 242 245 234 156 101 114 129 128 129 124 116 110 102 110 104 86
34 23 7 350 335 333 330 327 322 307 296 299 296 290 289 290 296 298 304 307 308 305 304 301 303 303 301 303 303 304 303 304 306 308 312 311 314 316 315 310 305 301 296 294 293 290 286 286 284 283 281 282 280 277 276 277 276 272 268 258 252 248 246 244 245 246 249 248 244 244 226 111 106 121 140 140 128 117 141 136 124 123 115 109 103
27 8 343 328 325 319 308 302 299 300 299 298 295 295 286 288 288 290 301 304 304 300 300 299 300 303 303 303 304 305 302 301 301 306 309 312 310 309 307 305 303 300 298 295 296 300 299 293 289 285 281 278 278 277 276 273 269 267 262 259 254 249 246 246 248 249 246 245 245 199 111 141 131 139 142 138 143 145 148 136 132 132 132 121 100
20 326 297 298 297 304 306 302 300 301 299 291 279 277 293 290 286 281 269 264 269 284 300 299 298 297 297 297 300 300 300 299 299 304 303 302 303 305 305 304 303 298 297 302 304 299 294 290 286 285 281 281 280 279 278 273 270 267 265 261 258 254 253 246 243 240 243 240 228 167 161 137 148 146 144 138 143 144 148 129 135 132 138 120 124
1 344 323 319 311 320 311 306 300 301 302 306 308 297 277 276 278 287 295 287 280 283 286 287 293 300 299 292 289 292 293 294 300 303 304 305 305 304 302 301 300 300 302 303 301 294 288 285 284 285 286 283 280 278 277 274 270 269 269 263 258 257 251 249 245 246 238 233 198 156 162 150 144 148 144 142 131 138 149 146 142 140 131 127 122
353 333 328 318 317 309 304 307 314 314 315 319 318 314 312 294 264 268 278 290 297 297 293 291 293 292 290 294 295 294 293 295 298 300 303 305 306 306 305 303 301 300 301 303 298 293 292 287 287 284 282 279 276 275 274 273 267 269 271 269 261 255 250 248 246 241 235 220 169 169 166 161 141 144 149 149 146 141 139 136 132 137 136 136 127
327 310 309 303 305 310 310 310 310 317 318 319 315 316 316 318 313 280 257 280 296 301 301 301 297 293 291 290 295 300 301 303 305 305 306 306 306 304 304 303 303 305 307 307 301 296 293 291 288 285 283 278 277 275 271 267 264 264 270 271 266 252 250 250 243 237 228 191 166 170 167 163 157 152 147 149 144 145 142 140 134 127 120 118 126
274 281 286 304 313 309 306 314 317 321 320 321 319 320 324 324 318 317 317 309 295 287 292 297 303 307 309 306 301 299 302 305 306 308 310 311 312 310 308 307 309 311 310 305 293 290 287 286 282 279 276 275 275 274 270 261 261 266 265 267 267 263 254 249 238 230 219 186 172 172 165 156 151 146 147 149 148 144 144 138 136 129 124 117 115
263 264 288 303 299 305 317 320 324 322 318 313 311 312 311 305 302 303 307 315 321 316 277 272 305 310 310 310 308 306 304 305 307 310 312 313 311 311 314 313 310 308 306 298 293 288 286 280 278 279 284 288 288 283 272 268 267 266 266 263 263 265 260 243 228 222 201 176 175 171 159 155 149 147 147 148 144 143 144 143 141 135 131 133 125
262 266 266 282 300 311 316 318 316 312 308 302 301 306 301 298 298 298 297 302 307 307 313 313 312 314 313 310 308 309 310 313 314 314 314 315 316 317 316 311 308 308 305 298 296 293 289 288 294 299 299 295 288 281 277 275 269 265 265 266 265 263 252 225 219 205 183 174 169 163 160 153 154 154 154 153 148 149 149 143 137 139 139 139 132
249 257 266 281 306 314 308 309 304 299 294 293 298 298 297 297 295 292 294 293 291 295 297 303 307 312 311 309 307 311 315 317 318 317 315 314 314 317 315 310 306 304 303 302 301 299 301 303 301 300 300 297 292 287 282 279 270 266 265 264 263 254 235 219 207 191 181 174 166 160 155 151 153 152 154 154 155 153 149 149 136 133 132 128 125
248 255 282 330 331 309 304 294 287 281 288 297 298 295 298 295 293 292 292 290 294 294 296 303 310 308 308 301 305 310 312 316 317 316 316 316 316 316 305 305 304 304 302 301 301 301 305 305 301 298 297 297 293 291 286 278 272 266 264 260 255 241 218 212 193 175 170 161 154 156 156 155 152 153 151 148 146 139 137 131 129 126 126 120 119
242 264 287 307 308 297 289 283 283 292 293 291 293 299 298 296 296 296 295 297 298 299 301 304 309 310 316 316 321 317 316 315 314 313 313 315 316 311 308 302 299 296 296 293 299 303 301 297 296 296 295 294 292 289 285 279 276 270 265 256 237 224 217 211 190 171 162 151 153 154 150 148 149 151 152 148 144 141 136 135 133 128 122 117 124
222 243 264 283 296 290 287 300 297 298 299 296 298 297 297 298 299 298 296 293 297 298 300 305 308 310 312 315 317 317 318 319 323 319 317 312 304 302 299 297 296 295 298 304 305 302 302 304 304 300 295 293 290 286 285 282 279 272 255 226 202 193 181 157 158 151 146 150 150 149 147 146 147 149 147 140 138 138 135 131 128 130 135 133 131
270 278 275 297 307 293 295 289 290 290 290 297 298 298 299 299 300 301 302 304 304 304 307 307 306 309 314 316 320 323 321 318 317 314 311 310 308 309 305 305 309 313 314 313 316 319 315 310 307 304 300 296 293 290 287 283 279 261 221 185 171 184 176 160 152 152 150 148 148 146 143 143 141 136 132 136 138 140 138 134 131 132 133 132 130
272 277 282 282 281 290 282 278 278 277 288 291 290 293 297 302 304 304 304 304 305 306 306 308 309 307 310 315 318 321 317 313 312 313 316 318 320 321 321 318 315 316 319 317 313 310 307 304 301 302 303 301 297 294 291 296 317 311 233 132 125 127 122 110 118 122 130 134 136 136 136 135 137 138 135 130 127 125 120 121 122 123 121 124 129
263 277 275 281 285 281 275 276 273 277 279 281 289 298 304 302 301 303 304 306 308 309 309 307 306 309 312 319 323 324 321 313 313 314 315 315 315 316 316 316 317 317 315 313 313 310 306 307 309 307 307 311 314 315 322 322 337 334 17 92 105 111 113 113 107 109 120 124 125 131 134 132 130 123 122 124 126 122 122 122 125 127 130 133 133
250 266 270 285 279 267 269 271 277 281 289 293 300 301 294 292 294 295 299 303 305 308 311 312 312 315 316 320 325 327 322 317 314 314 312 313 313 315 316 316 316 316 312 306 303 305 309 309 309 316 324 328 334 334 334 331 323 355 20 86 113 125 122 117 113 114 112 117 123 122 119 121 120 121 127 127 125 124 125 123 122 126 131 134 136
265 262 275 269 265 270 268 272 279 290 290 298 299 293 290 292 292 297 297 301 304 309 311 313 315 318 318 325 330 330 324 320 316 316 316 315 314 313 314 314 314 312 312 308 305 309 311 311 314 319 325 332 338 343 347 352 356 344 347 97 127 113 116 129 137 137 137 130 127 125 120 119 120 123 124 125 126 125 124 127 130 135 138 141 139
246 259 266 271 273 276 279 285 292 296 304 302 298 295 296 295 295 294 301 303 307 310 311 311 313 317 321 325 327 328 328 323 319 316 315 315 314 315 316 316 318 316 314 312 315 318 316 318 320 326 332 335 341 345 351 356 1 11 12 37 76 110 109 124 128 132 134 134 131 127 125 125 129 129 126 127 130 131 134 138 136 134 135 140 143
259 267 266 272 281 283 288 294 297 297 298 299 297 295 298 298 295 299 299 302 311 315 313 316 318 319 319 320 321 325 325 326 321 318 314 314 315 316 318 319 319 318 317 317 321 324 324 326 329 332 336 339 343 346 351 356 4 8 17 26 44 57 72 88 102 118 128 131 131 131 128 125 125 130 130 129 127 126 128 128 133 141 142 141 137
250 249 264 274 277 285 285 284 285 288 293 287 289 294 298 298 297 299 298 303 308 308 312 317 319 321 321 321 323 322 322 320 320 320 318 318 319 319 320 322 321 320 320 322 327 330 331 334 336 337 337 340 344 349 353 352 356 6 13 19 37 65 77 107 111 113 110 112 124 131 128 124 118 117 116 116 115 120 124 134 141 138 136 137 136
234 259 269 273 274 274 276 280 283 285 284 284 288 291 292 291 296 294 296 301 306 308 311 312 317 317 321 321 321 322 324 323 319 317 318 318 319 322 324 325 324 324 323 325 330 333 333 336 336 337 337 340 349 352 351 353 354 11 14 18 23 44 62 70 83 81 89 102 108 112 115 115 116 118 122 124 126 130 129 131 128 126 131 131 132
246 256 268 269 272 276 274 281 281 282 282 285 288 288 287 290 289 289 294 301 307 310 311 314 315 318 317 318 320 321 321 323 325 326 324 326 326 327 327 327 326 326 330 332 334 336 337 340 341 338 339 341 348 356 354 349 359 8 20 21 57 66 65 61 62 76 88 94 94 94 95 102 110 115 115 116 121 122 120 123 128 130 130 129 132
248 256 261 266 267 265 273 273 274 274 276 279 281 283 284 284 284 287 291 296 300 301 308 312 313 314 316 317 321 321 322 324 326 326 325 325 329 329 330 332 332 332 335 339 339 335 338 340 336 338 347 353 357 356 356 355 4 14 18 44 62 69 71 71 69 72 80 89 94 102 105 107 106 106 109 116 121 121 121 126 128 130 134 138 140
253 253 261 259 261 266 269 268 267 269 273 278 278 281 281 282 282 288 292 296 296 301 305 308 309 310 313 314 315 315 317 318 319 321 323 324 327 330 332 334 335 337 338 345 347 346 339 340 342 347 354 1 4 359 356 0 7 27 48 58 64 66 58 60 68 75 82 91 100 107 114 116 118 115 117 116 118 116 125 125 130 134 140 141 139